Regional Weather Roundup
Issued by NWS

Home | Current Version | Previous Version | Text Only | Print | Product List | Glossary Off
Versions: 1 2 3 4 5 6 7 8 9 10 11 12 13 14 15 16 17 18 19 20 21 22 23 24 25 26 27 28 29 30 31 32 33 34 35 36 37 38 39 40 41 42 43 44 45 46 47 48 49 50

000
ASUS45 KCYS 290110
RWRWY

WYOMING REGIONAL WEATHER ROUNDUP
NATIONAL WEATHER SERVICE CHEYENNE WY
700 PM MDT TUE JUL 28 2015

NOTE:  "FAIR" INDICATES FEW OR NO CLOUDS BELOW 12,000 FEET
WITH NO SIGNIFICANT WEATHER AND/OR OBSTRUCTIONS TO VISIBILITY.

WYZ001-290200-
YELLOWSTONE NATIONAL PARK

CITY           SKY/WX    TMP DP  RH WIND       PRES   REMARKS
LK YELLOWSTONE   N/A     51  29  42 VRB3      30.43R
W YELLOWSTONE  NOT AVBL

$$
WYZ002>013-054>058-071-098>099-290200-
NORTHERN WYOMING

CITY           SKY/WX    TMP DP  RH WIND       PRES   REMARKS
JACKSON        FAIR      63  30  29 NW8       30.34F
CODY           FAIR      66  30  26 W15       30.23R
GREYBULL       FAIR      75  30  19 N14       30.15S
WORLAND        FAIR      74  30  19 N8        30.17S
SHERIDAN       FAIR      71  35  26 N22G28    30.16R
BUFFALO        FAIR      68  35  29 N13G25    30.22R
GILLETTE       FAIR      70  35  27 NW17      30.17R
HULETT         FAIR      68  36  30 W13G20    30.16R
NEWCASTLE      FAIR      70  32  24 NW20G28   30.17R

$$
WYZ014>020-022>026-101>103-290200-
CENTRAL WYOMING

CITY           SKY/WX    TMP DP  RH WIND       PRES   REMARKS
BIG PINEY      FAIR      66  22  18 NW9       30.33S
PINEDALE       FAIR      63  27  25 NW10      30.35R
DUBOIS         FAIR      59  27  29 N16G23    30.32S
LANDER         FAIR      74  26  16 N10       30.19S
RIVERTON       FAIR      73  21  14 NE7       30.21R
CASPER         FAIR      74  14  10 NW14      30.19R
DOUGLAS        FAIR      75  19  12 NW17      30.18R

$$
WYZ021-027>030-104>119-290200-
SOUTHERN WYOMING

CITY           SKY/WX    TMP DP  RH WIND       PRES   REMARKS
EVANSTON       FAIR      69   7   9 W9        30.33S
KEMMERER       FAIR      64  21  19 NW9G17    30.35F
FORT BRIDGER   CLEAR     72  14  11 NW9       30.35R
ROCK SPRINGS   FAIR      69  15  12 W10G20    30.30S
DIXON          FAIR      76  22  13 NW6       30.29S
RAWLINS        FAIR      70  10  10 W14G25    30.30S
SARATOGA       FAIR      70  19  14 W9G17     30.32S
LARAMIE        FAIR      71  21  15 NW16      30.29R
CHEYENNE       FAIR      72  30  21 E7        30.22R
TORRINGTON     FAIR      81  27  14 N8        30.11R
PINE BLUFFS    MOCLDY    75  21  13 N12       30.19R

$$


USA.gov is the U.S. government's official web portal to all federal, state and local government web resources and services.